Skip Page Navigation
NASA JPL Caltech
NASA Logo - Jet Propulsion Laboratory + View the NASA Portal
+ Center for Near-Earth Object Studies
JPL Home Earth Solar System Stars & Galaxies Technology
JPL Solar System Dynamics
BODIES ORBITS EPHEMERIDES TOOLS PHYSICAL DATA DISCOVERY FAQ SITE MAP
JPL Small-Body Database Browser
Search: [ help ]  
344021 (2012 FV36)
Classification: Main-belt Asteroid          SPK-ID: 2344021
Ephemeris | Orbit Diagram | Orbital Elements | Mission Design | Physical Parameters | Discovery Circumstances | Close-Approach Data ]

[ show orbit diagram ]
Orbital Elements at Epoch 2459000.5 (2020-May-31.0) TDB
Reference: JPL 14 (heliocentric ecliptic J2000)
 Element Value Uncertainty (1-sigma)   Units 
e .1235813539426186 8.2937e-08  
a 2.649019736538054 3.2738e-08 au
q 2.321650290875962 2.235e-07 au
i 5.155073083368467 5.9772e-06 deg
node 86.16920844098836 6.5252e-05 deg
peri 291.0519368337171 6.89e-05 deg
M 132.5822112359408 2.4881e-05 deg
tp 2458420.525398535252
(2018-Oct-29.02539854)
0.00010457 TDB
period 1574.802943629814
4.31
2.9193e-05
7.993e-08
d
yr
n .2286000298997565 4.2377e-09 deg/d
Q 2.976389182200146 3.6783e-08 au
  Orbit Determination Parameters
   # obs. used (total)      242  
   data-arc span      9521 days (26.07 yr)  
   first obs. used      1994-01-08  
   last obs. used      2020-02-02  
   planetary ephem.      DE431  
   SB-pert. ephem.      SB431-N16  
   condition code      0  
   norm. resid. RMS      .60799  
   source      ORB  
   producer      Otto Matic  
   solution date      2020-Feb-25 22:59:38  

Additional Information
 Earth MOID = 1.32962 au 
 Jupiter MOID = 2.49269 au 
 T_jup = 3.375 
[ show covariance matrix ]

Ephemeris | Orbit Diagram | Orbital Elements | Mission Design | Physical Parameters | Discovery Circumstances | Close-Approach Data ]

Physical Parameter Table
Parameter Symbol Value Units Sigma Reference Notes
absolute magnitude H 16.7   n/a MPO418775  

344021 (2012 FV36)          Discovered 2006-Oct-23 by Mt. Lemmon Survey at Mount Lemmon
Reference: 20121029/Numbers.arcLast Updated: 2012-11-08

[ show close-approach data ]
Alternate Designations
 2012 FV36 = 2010 TR17 
Ephemeris | Orbit Diagram | Orbital Elements | Mission Design | Physical Parameters | Discovery Circumstances | Close-Approach Data ]
ABOUT SSD CREDITS/AWARDS PRIVACY/COPYRIGHT GLOSSARY LINKS
FirstGov 2020-Jul-12 20:44 UT
(server date/time)  
NASA Home Page
Site Manager:   Ryan S. Park
Webmaster  Alan B. Chamberlin